SHIYAN-12 02 (SY-12 02)

Last updated on Thu Aug 13 2026 00:03:02 GMT+0000 (Coordinated Universal Time)

1 50322U 21129B 26224.77905816 -.00000329 00000+0 00000+0 0 9999 2 50322 3.8147 79.1227 0003363 81.0670 212.2505 1.00461921 17067
UTC large
Height (km)
Speed (km/s)
/
Latitude / Longitude
Inclination (degrees)
Orbital Period (minutes)
Azimuth
Elevation
Range (km)
Doppler Factor

Next 0 passes for location: London (51.5072 / 0.1276)

No passes found over London.
SHIYAN-12 02 (SY-12 02)